CW3202 Weather Reports


Display with metric or nautical units.
time (UTC)temp
F
wind
direction
speed
MPH
gust
MPH
rain 1hr
in
rain 24hr
in
rain mn
in
humidity
%
barometer
mb
20260903044124 51 360 0.0 3.0 0.00 0.00 0.25 97 1008.0
20260903043425 51 158 2.0 3.0 0.00 0.00 0.25 97 1007.9
20260903042724 51 360 1.0 2.0 0.00 0.00 0.25 97 1007.8
20260903042224 51 360 1.0 3.0 0.00 0.00 0.25 96 1007.8
20260903041524 51 360 1.0 3.0 0.00 0.00 0.25 97 1007.7
20260903041025 51 159 1.0 4.0 0.00 0.00 0.25 96 1007.6
20260903040524 52 360 2.0 4.0 0.00 0.00 0.25 95 1007.6
20260903040025 52 360 2.0 2.0 0.00 0.00 0.25 95 1007.6
20260903035525 53 360 0.0 1.0 0.00 0.00 0.25 96 1007.5
20260903035024 53 360 0.0 1.0 0.00 0.00 0.25 96 1007.3
20260903034524 53 159 0.0 2.0 0.00 0.00 0.25 95 1007.3
20260903034024 53 159 0.0 2.0 0.00 0.00 0.25 95 1007.3
20260903033324 54 159 1.0 1.0 0.00 0.00 0.25 93 1007.1
20260903032824 54 159 0.0 2.0 0.00 0.00 0.25 93 1007.0
20260903032125 54 159 1.0 4.0 0.00 0.00 0.25 93 1007.0
20260903031425 55 159 2.0 4.0 0.00 0.00 0.25 91 1007.0
20260903030924 56 159 2.0 2.0 0.00 0.00 0.25 91 1007.0
20260903030025 56 159 0.0 2.0 0.00 0.00 0.25 90 1007.0
20260903025524 57 159 0.0 1.0 0.00 0.00 0.25 88 1006.8
20260903025024 57 159 0.0 1.0 0.00 0.00 0.25 87 1006.7
20260903024524 58 160 1.0 2.0 0.00 0.00 0.25 86 1006.7
20260903023825 58 160 0.0 2.0 0.00 0.00 0.25 86 1006.8
20260903023325 58 145 1.0 2.0 0.00 0.00 0.25 86 1006.8
20260903022624 59 145 0.0 3.0 0.00 0.00 0.25 86 1006.8
20260903022125 59 146 0.0 3.0 0.00 0.00 0.25 87 1006.6
20260903021624 60 146 0.0 1.0 0.00 0.00 0.25 85 1006.7
20260903021125 60 146 1.0 1.0 0.00 0.00 0.25 84 1006.6
20260903020624 60 146 0.0 2.0 0.00 0.00 0.25 83 1006.6
20260903020125 60 146 0.0 2.0 0.00 0.00 0.25 82 1006.6
20260903015624 61 165 0.0 2.0 0.00 0.00 0.25 81 1006.6
20260903015124 61 158 1.0 2.0 0.00 0.00 0.25 82 1006.5
20260903014625 61 158 1.0 1.0 0.00 0.00 0.25 83 1006.4
20260903014124 62 157 0.0 1.0 0.00 0.00 0.25 82 1006.5
20260903013624 62 157 0.0 1.0 0.00 0.00 0.25 81 1006.4
20260903013124 62 158 0.0 1.0 0.00 0.00 0.25 81 1006.4
20260903012624 62 157 1.0 2.0 0.00 0.00 0.25 82 1006.4
20260903012124 62 157 0.0 2.0 0.00 0.00 0.25 81 1006.3
20260903011624 62 158 0.0 2.0 0.00 0.00 0.25 83 1006.3
20260903010724 62 158 0.0 4.0 0.00 0.00 0.25 82 1006.2
20260903010225 62 158 1.0 6.0 0.00 0.00 0.25 81 1006.3
20260903005724 62 165 4.0 6.0 0.00 0.00 0.25 79 1006.2
20260903005225 63 184 1.0 4.0 0.00 0.00 0.25 81 1006.2
20260903004725 63 190 3.0 3.0 0.00 0.00 0.25 80 1006.1
20260903004224 63 360 2.0 3.0 0.00 0.00 0.25 80 1006.0
20260903003724 63 155 1.0 2.0 0.00 0.00 0.25 81 1006.0
20260903003225 63 171 1.0 3.0 0.00 0.00 0.25 80 1006.0
20260903002724 63 202 2.0 3.0 0.00 0.00 0.25 80 1005.9
20260903002224 64 150 3.0 5.0 0.00 0.00 0.25 79 1005.9
20260903001524 65 173 5.0 5.0 0.00 0.00 0.25 78 1005.9
20260903001024 64 144 4.0 4.0 0.00 0.00 0.25 79 1005.9
20260903000525 64 165 0.0 3.0 0.00 0.00 0.25 80 1005.8
20260903000024 64 157 2.0 3.0 0.00 0.00 0.25 79 1005.7
20260902235324 64 140 1.0 3.0 0.00 0.00 0.25 80 1005.8
20260902234825 64 168 2.0 2.0 0.00 0.00 0.25 80 1005.7
20260902234324 64 160 1.0 3.0 0.00 0.00 0.25 83 1005.8
20260902233624 64 141 3.0 4.0 0.00 0.00 0.25 86 1005.8
20260902233125 63 169 4.0 4.0 0.00 0.00 0.25 86 1005.8
20260902232624 63 180 1.0 4.0 0.00 0.00 0.25 85 1005.7
20260902232125 62 163 4.0 4.0 0.00 0.00 0.25 88 1005.7
20260902231626 62 147 0.0 5.0 0.00 0.00 0.25 89 1005.7
20260902231124 62 164 2.0 5.0 0.00 0.00 0.25 90 1005.7
20260902230424 62 113 1.0 10.0 0.00 0.00 0.25 90 1005.6
20260902225924 62 144 2.0 10.0 0.00 0.00 0.25 88 1005.6
20260902225424 62 111 2.0 8.0 0.00 0.00 0.25 88 1005.6
20260902224524 63 174 5.0 7.0 0.00 0.00 0.25 89 1005.3
20260902224025 62 178 1.0 2.0 0.00 0.00 0.25 93 1005.1
20260902223524 62 146 2.0 3.0 0.00 0.00 0.25 96 1005.1
20260902223024 62 333 1.0 3.0 0.00 0.00 0.25 96 1005.0
20260902222524 61 132 1.0 3.0 0.00 0.00 0.25 98 1005.1
20260902222024 60 360 3.0 3.0 0.00 0.00 0.25 97 1005.1
20260902221524 60 360 2.0 6.0 0.00 0.00 0.25 97 1005.1
20260902221024 59 164 1.0 6.0 0.00 0.00 0.25 98 1005.0
20260902215924 58 173 1.0 2.0 0.00 0.00 0.25 97 1005.1
20260902215425 58 161 2.0 2.0 0.00 0.00 0.25 97 1005.0
20260902214925 58 156 1.0 5.0 0.00 0.00 0.24 97 1005.0
20260902214425 58 155 1.0 7.0 0.00 0.00 0.22 95 1005.1
20260902213925 59 190 3.0 9.0 0.00 0.00 0.04 96 1005.2
20260902213424 59 74 4.0 12.0 0.00 0.00 0.01 96 1004.4
20260902212925 59 93 4.0 12.0 0.00 0.00 0.01 95 1004.3
20260902212425 59 85 7.0 12.0 0.00 0.00 0.01 95 1004.3
20260902211925 59 84 12.0 12.0 0.00 0.00 0.01 96 1004.3
20260902211425 59 57 7.0 9.0 0.00 0.00 0.01 97 1004.3
20260902210924 59 74 5.0 13.0 0.00 0.00 0.01 97 1004.2
20260902210225 58 21 8.0 13.0 0.00 0.00 0.01 96 1004.1
20260902205724 58 65 4.0 7.0 0.00 0.00 0.01 96 1004.0
20260902205024 58 43 4.0 7.0 0.00 0.00 0.01 96 1004.1
20260902204524 58 45 6.0 7.0 0.00 0.00 0.01 96 1003.9
20260902204024 58 81 7.0 7.0 0.00 0.00 0.01 96 1003.8
20260902203524 58 28 6.0 9.0 0.00 0.00 0.01 95 1003.6
20260902203025 58 76 5.0 9.0 0.00 0.00 0.01 95 1003.6
20260902202525 58 44 5.0 9.0 0.00 0.00 0.01 96 1003.6
20260902202025 58 83 7.0 7.0 0.00 0.00 0.01 96 1003.5
20260902201525 58 56 3.0 13.0 0.00 0.00 0.01 95 1003.7
20260902201024 58 26 3.0 13.0 0.00 0.00 0.01 95 1003.7
20260902200524 58 77 13.0 13.0 0.00 0.00 0.01 95 1003.6
20260902200024 58 5 10.0 11.0 0.00 0.00 0.01 95 1003.8
20260902195524 58 89 7.0 11.0 0.00 0.00 0.01 94 1003.8
20260902195024 58 86 8.0 11.0 0.00 0.00 0.00 94 1003.7
20260902194325 58 22 5.0 10.0 0.00 0.00 0.00 94 1003.8
20260902193825 58 48 9.0 12.0 0.00 0.00 0.00 94 1004.0
20260902193324 58 84 10.0 12.0 0.00 0.00 0.00 94 1004.0
20260902192824 58 67 6.0 12.0 0.00 0.00 0.00 94 1004.1
20260902192325 58 90 12.0 12.0 0.00 0.00 0.00 94 1004.0
20260902191824 58 46 6.0 11.0 0.00 0.00 0.00 94 1003.9
20260902191324 58 22 9.0 10.0 0.00 0.00 0.00 94 1004.0
20260902190824 58 48 5.0 8.0 0.00 0.00 0.00 94 1004.1
20260902190325 58 37 2.0 8.0 0.00 0.00 0.00 95 1004.1
20260902185824 58 36 3.0 9.0 0.00 0.00 0.00 95 1004.2
20260902185325 58 49 7.0 9.0 0.00 0.00 0.00 95 1004.3
20260902184824 58 355 9.0 9.0 0.00 0.00 0.00 95 1004.2
20260902184324 58 5 5.0 9.0 0.00 0.00 0.00 95 1004.2
20260902183824 58 9 1.0 7.0 0.00 0.00 0.00 95 1004.2
20260902183324 58 5 5.0 9.0 0.00 0.00 0.00 95 1004.4
20260902182824 58 41 5.0 9.0 0.00 0.00 0.00 95 1004.6
20260902182325 58 30 9.0 9.0 0.00 0.00 0.00 95 1004.7
20260902181824 58 10 7.0 9.0 0.00 0.00 0.00 95 1004.5
20260902181324 58 42 4.0 7.0 0.00 0.00 0.00 95 1004.8
20260902180824 58 37 4.0 6.0 0.00 0.00 0.00 94 1005.0
20260902180324 58 53 4.0 6.0 0.00 0.00 0.00 95 1005.1
20260902175824 58 52 6.0 7.0 0.00 0.00 0.00 94 1005.1
20260902175324 58 17 5.0 8.0 0.00 0.00 0.00 94 1005.1
20260902174824 58 30 6.0 8.0 0.00 0.00 0.00 94 1005.1
20260902174324 58 46 3.0 7.0 0.00 0.00 0.00 94 1005.2
20260902173824 58 36 3.0 10.0 0.00 0.00 0.00 94 1005.2
20260902173124 58 35 7.0 10.0 0.00 0.00 0.00 94 1005.2
20260902172625 58 28 6.0 6.0 0.00 0.00 0.00 94 1005.2
20260902172124 58 38 2.0 6.0 0.00 0.00 0.00 95 1005.3
20260902171624 58 46 3.0 6.0 0.00 0.00 0.00 95 1005.3
20260902171124 58 44 3.0 5.0 0.00 0.00 0.00 95 1005.3
20260902170625 58 17 4.0 4.0 0.00 0.00 0.00 95 1005.3
20260902170125 58 10 4.0 5.0 0.00 0.00 0.00 96 1005.3
20260902165625 58 26 3.0 5.0 0.00 0.00 0.00 96 1005.4
20260902165124 58 19 5.0 5.0 0.00 0.00 0.00 96 1005.3
20260902164625 58 20 3.0 4.0 0.00 0.00 0.00 96 1005.2
20260902163925 58 40 3.0 4.0 0.00 0.00 0.00 96 1005.4
20260902163425 58 30 2.0 6.0 0.00 0.00 0.00 96 1005.3
20260902162925 58 25 3.0 6.0 0.00 0.00 0.00 95 1005.3
20260902162424 58 44 5.0 5.0 0.00 0.00 0.00 95 1005.4
20260902161924 58 33 3.0 5.0 0.00 0.00 0.00 94 1005.4
20260902161224 58 18 2.0 5.0 0.00 0.00 0.00 94 1005.6
20260902160725 58 29 4.0 5.0 0.00 0.00 0.00 94 1005.5
20260902160224 59 27 3.0 5.0 0.00 0.00 0.00 93 1005.6
20260902155724 59 37 3.0 8.0 0.00 0.00 0.00 92 1005.7
20260902155224 59 74 5.0 8.0 0.00 0.00 0.00 92 1005.7
20260902154725 59 29 8.0 8.0 0.00 0.00 0.00 92 1005.5
20260902154225 59 26 5.0 5.0 0.00 0.00 0.00 93 1005.7
20260902153724 59 14 2.0 4.0 0.00 0.00 0.00 94 1005.8
20260902153224 58 38 1.0 4.0 0.00 0.00 0.00 94 1005.8
20260902152724 58 34 2.0 4.0 0.00 0.00 0.00 94 1005.8
20260902152224 58 30 1.0 4.0 0.00 0.00 0.00 95 1005.8
20260902151724 58 16 2.0 3.0 0.00 0.00 0.00 96 1005.8
20260902151224 58 17 2.0 4.0 0.00 0.00 0.00 97 1005.8
20260902150724 57 17 2.0 4.0 0.00 0.00 0.00 96 1005.9
20260902150224 57 22 3.0 4.0 0.00 0.00 0.00 97 1005.9
20260902145725 57 30 3.0 4.0 0.00 0.00 0.00 97 1006.0
20260902145225 57 11 3.0 3.0 0.00 0.00 0.00 97 1006.1
20260902144725 56 32 2.0 3.0 0.00 0.00 0.00 97 1006.2
20260902144225 56 34 3.0 3.0 0.00 0.00 0.00 97 1006.3
20260902143724 56 34 2.0 3.0 0.00 0.00 0.00 97 1006.3
20260902143024 56 34 2.0 4.0 0.00 0.00 0.00 97 1006.3
20260902142524 56 34 4.0 4.0 0.00 0.00 0.00 97 1006.3
20260902142024 56 34 2.0 3.0 0.00 0.00 0.00 97 1006.3
20260902141525 56 34 2.0 3.0 0.00 0.00 0.00 97 1006.3
20260902141025 56 38 2.0 3.0 0.00 0.00 0.00 98 1006.5
20260902140125 56 28 2.0 2.0 0.00 0.00 0.00 98 1006.6
20260902135625 56 28 2.0 2.0 0.00 0.00 0.00 98 1006.6
20260902135124 56 28 2.0 2.0 0.00 0.00 0.00 98 1006.7
20260902134625 56 30 2.0 3.0 0.00 0.00 0.00 98 1006.8
20260902134124 56 33 2.0 3.0 0.00 0.00 0.00 98 1006.8
20260902133625 56 360 3.0 3.0 0.00 0.00 0.00 98 1006.8
20260902133124 56 360 2.0 3.0 0.00 0.00 0.00 98 1006.9
20260902132624 56 13 2.0 3.0 0.00 0.00 0.00 98 1007.2
20260902132124 56 14 2.0 3.0 0.00 0.00 0.00 98 1007.2
20260902131626 56 15 1.0 4.0 0.00 0.00 0.00 98 1007.2
20260902131124 56 15 2.0 4.0 0.00 0.00 0.00 98 1007.3
20260902130624 56 17 3.0 3.0 0.00 0.00 0.00 98 1007.5
20260902130124 56 17 3.0 3.0 0.00 0.00 0.00 98 1007.6
20260902125624 56 55 1.0 4.0 0.00 0.00 0.00 98 1007.6
20260902125125 56 32 3.0 4.0 0.00 0.00 0.00 98 1007.6
20260902124625 56 32 4.0 4.0 0.00 0.00 0.00 99 1007.7
20260902124124 56 53 3.0 5.0 0.00 0.00 0.00 99 1007.7
20260902123624 56 38 3.0 5.0 0.00 0.00 0.00 99 1007.6
20260902123124 56 16 3.0 4.0 0.00 0.00 0.00 99 1007.5
20260902122624 55 15 3.0 4.0 0.00 0.00 0.00 99 1007.7
20260902122124 55 12 3.0 4.0 0.00 0.00 0.00 99 1007.8
20260902121625 55 9 3.0 4.0 0.00 0.00 0.00 99 1007.8
20260902120725 55 13 3.0 3.0 0.00 0.00 0.00 99 1008.1
20260902120224 55 49 2.0 3.0 0.00 0.00 0.00 99 1008.2
20260902115725 55 17 2.0 2.0 0.00 0.00 0.00 99 1008.2
20260902115225 55 17 1.0 4.0 0.00 0.00 0.00 99 1008.3
20260902114724 55 17 2.0 4.0 0.00 0.00 0.00 99 1008.3
20260902114224 54 17 3.0 3.0 0.00 0.00 0.00 99 1008.4
20260902113724 54 161 0.0 0.0 0.00 0.00 0.00 99 1008.4
20260902113024 54 161 0.0 0.0 0.00 0.00 0.00 99 1008.4
20260902112524 54 161 0.0 0.0 0.00 0.00 0.00 99 1008.4
20260902112024 54 161 0.0 1.0 0.00 0.00 0.00 99 1008.3
20260902111524 53 161 0.0 1.0 0.00 0.00 0.00 99 1008.5
20260902111024 53 161 0.0 1.0 0.00 0.00 0.00 99 1008.5
20260902110524 53 161 0.0 1.0 0.00 0.00 0.00 99 1008.5
20260902110024 53 161 0.0 1.0 0.00 0.00 0.00 99 1008.6
20260902105525 53 161 1.0 1.0 0.00 0.00 0.00 99 1008.6
20260902105024 53 161 0.0 0.0 0.00 0.00 0.00 99 1008.6
20260902104524 53 161 0.0 0.0 0.00 0.00 0.00 99 1008.6
20260902104024 53 161 0.0 2.0 0.00 0.00 0.00 99 1008.7
20260902103525 53 161 0.0 2.0 0.00 0.00 0.00 99 1008.7
20260902103024 53 161 0.0 2.0 0.00 0.00 0.00 99 1008.7
20260902102524 53 161 2.0 2.0 0.00 0.00 0.00 99 1008.8
20260902102025 52 161 2.0 2.0 0.00 0.00 0.00 99 1008.7
20260902101524 52 161 1.0 1.0 0.00 0.00 0.00 98 1008.9
20260902101024 52 161 0.0 0.0 0.00 0.00 0.00 98 1009.0
20260902100525 52 161 0.0 0.0 0.00 0.00 0.00 98 1009.0
20260902100025 52 161 0.0 1.0 0.00 0.00 0.00 98 1008.8
20260902095525 52 161 0.0 1.0 0.00 0.00 0.00 98 1008.8
20260902095025 52 161 0.0 1.0 0.00 0.00 0.00 98 1008.8
20260902094524 52 161 1.0 2.0 0.00 0.00 0.00 97 1008.8
20260902093824 53 161 1.0 2.0 0.00 0.00 0.00 98 1009.0
20260902093324 53 161 0.0 1.0 0.00 0.00 0.00 98 1008.9
20260902092824 53 161 0.0 3.0 0.00 0.00 0.00 97 1008.9
20260902092325 54 147 0.0 3.0 0.00 0.00 0.00 98 1009.0
20260902091825 54 147 1.0 2.0 0.00 0.00 0.00 98 1009.1
20260902091324 54 148 0.0 1.0 0.00 0.00 0.00 98 1009.2
20260902090824 54 148 1.0 2.0 0.00 0.00 0.00 98 1009.2
20260902090125 55 148 1.0 2.0 0.00 0.00 0.00 98 1009.4
20260902085624 55 54 1.0 2.0 0.00 0.00 0.00 98 1009.4
20260902085125 55 54 1.0 2.0 0.00 0.00 0.00 98 1009.4
20260902084624 55 54 0.0 2.0 0.00 0.00 0.00 98 1009.4
20260902083724 55 54 2.0 2.0 0.00 0.00 0.00 99 1009.5
20260902083225 55 54 1.0 1.0 0.00 0.00 0.00 99 1009.6
20260902082724 55 54 1.0 1.0 0.00 0.00 0.00 99 1009.7
20260902082224 55 54 0.0 2.0 0.00 0.00 0.00 99 1009.7
20260902081724 55 54 1.0 2.0 0.00 0.00 0.00 99 1009.7
20260902081224 55 54 2.0 2.0 0.00 0.00 0.00 99 1009.7
20260902080724 54 54 1.0 2.0 0.00 0.00 0.00 99 1009.7
20260902080025 54 54 1.0 1.0 0.00 0.00 0.00 98 1009.7
20260902075525 54 54 0.0 0.0 0.00 0.00 0.00 98 1009.7
20260902074824 54 54 0.0 1.0 0.00 0.00 0.00 98 1009.8
20260902074125 54 54 1.0 1.0 0.00 0.00 0.00 98 1009.9
20260902073425 54 54 0.0 3.0 0.00 0.00 0.00 98 1009.9
20260902072924 54 54 0.0 3.0 0.00 0.00 0.00 98 1010.0
20260902072225 53 54 1.0 2.0 0.00 0.00 0.00 98 1010.1
20260902071725 53 54 0.0 1.0 0.00 0.00 0.00 98 1010.1
20260902071225 53 54 0.0 2.0 0.00 0.00 0.00 98 1010.2
20260902070724 54 54 1.0 2.0 0.00 0.00 0.00 97 1010.1
20260902070225 54 54 2.0 2.0 0.00 0.00 0.00 97 1010.0
20260902065725 54 54 2.0 2.0 0.00 0.00 0.00 98 1010.1
20260902065224 54 55 0.0 1.0 0.00 0.00 0.00 98 1010.1
20260902064724 54 55 1.0 1.0 0.00 0.00 0.00 97 1010.1
20260902064224 55 55 0.0 0.0 0.00 0.00 0.00 98 1010.1
20260902063524 55 55 0.0 1.0 0.00 0.00 0.00 97 1010.1
20260902063025 55 55 0.0 1.0 0.00 0.00 0.00 98 1010.0
20260902062525 55 55 0.0 2.0 0.00 0.00 0.00 98 1010.1
20260902061825 55 55 1.0 2.0 0.00 0.00 0.00 98 1010.0
20260902061325 56 55 1.0 2.0 0.00 0.00 0.00 98 1010.1
20260902060624 56 54 2.0 2.0 0.00 0.00 0.00 98 1010.0
20260902055925 56 55 1.0 2.0 0.00 0.00 0.00 98 1010.1
20260902055224 56 55 2.0 2.0 0.00 0.00 0.00 97 1010.0
20260902054725 56 55 0.0 2.0 0.00 0.00 0.00 97 1010.0
20260902054225 56 55 1.0 2.0 0.00 0.00 0.00 98 1010.2
20260902053725 55 55 0.0 3.0 0.00 0.00 0.00 97 1010.2
20260902053025 56 55 1.0 3.0 0.00 0.00 0.00 97 1010.3
20260902052324 56 55 0.0 2.0 0.00 0.00 0.00 97 1010.4
20260902051824 56 55 2.0 2.0 0.00 0.00 0.00 97 1010.4
20260902051324 56 55 1.0 1.0 0.00 0.00 0.00 97 1010.4
20260902050824 56 55 0.0 1.0 0.00 0.00 0.00 97 1010.4
20260902050124 56 55 0.0 1.0 0.00 0.00 0.00 97 1010.6
20260902045625 56 55 0.0 1.0 0.00 0.00 0.00 97 1010.6
20260902045124 56 55 0.0 1.0 0.00 0.00 0.00 97 1010.6
20260902044624 56 55 1.0 2.0 0.00 0.00 0.00 97 1010.7